Weather History for MMMX - August, 2013

Change the Weather History Date:

Tuesday, August 20, 2013

  Actual Average Record
Temperature  
Mean Temperature 64 °F -  
Max Temperature 73 °F 71 °F 80 °F (2001)
Min Temperature 55 °F 53 °F 51 °F (1997)
Degree Days  
Heating Degree Days 1    
Growing Degree Days 14 (Base 50)    
Moisture  
Dew Point 52 °F    
Average Humidity 75    
Maximum Humidity 94    
Minimum Humidity 41    
Precipitation  
Precipitation 1.50 in - - ()
Sea Level Pressure  
Sea Level Pressure 30.21 in    
Wind  
Wind Speed 6 mph ()    
Max Wind Speed 16 mph    
Max Gust Speed -    
Visibility 5.7 miles    
Events Rain , Thunderstorm    
Averages and records for this station are not official NWS values.
T = Trace of Precipitation, MM = Missing Value Source: Averaged Metar Reports

Daily Weather History Graph

Daily Weather History Graph

Search for Another Location

Airport or City:

Trip Planner

Search our weather history database for the weather conditions in past years. The results will help you decide how hot, cold, wet, or windy it might be!

Date:

Astronomy

Aug. 20, 2013 Rise Set
Actual Time 7:18 AM CDT 8:00 PM CDT
Civil Twilight 6:55 AM CDT 8:23 PM CDT
Nautical Twilight 6:29 AM CDT 8:49 PM CDT
Astronomical Twilight 6:02 AM CDT 9:16 PM CDT
Moon 7:42 PM CDT (8/20) 6:46 AM CDT (8/20)
Length of Visible Light 13h 27m
Length of Day
12h 42m
Full, 100% of the Moon is Illuminated
Aug 20
Full
Aug 20
Full
Aug 28
Last Quarter
Sep 5
New
Sep 12
First Quarter

Hourly Weather History & Observations

Time (CDT) Temp. Dew Point Humidity Pressure Visibility Wind Dir Wind Speed Gust Speed Precip Events Conditions
12:24 AM 59.0 °F 51.8 °F 77% 30.32 in 7.0 mi NNW 8.1 mph - N/A Rain Light Rain
12:54 AM 59.0 °F 51.8 °F 77% 29.87 in 6.0 mi North 5.8 mph - N/A Rain Light Rain
1:50 AM 57.2 °F 53.6 °F 88% 30.30 in 6.0 mi NNW 8.1 mph - N/A Rain Light Rain
2:47 AM 57.2 °F 53.6 °F 88% 30.29 in 7.0 mi NNW 6.9 mph - N/A Rain Light Rain
3:49 AM 55.4 °F 51.8 °F 88% 29.81 in 7.0 mi North 6.9 mph - N/A Rain Light Rain
4:46 AM 55.4 °F 51.8 °F 88% 30.28 in 8.0 mi NNW 6.9 mph - N/A   Overcast
5:46 AM 55.4 °F 51.8 °F 88% 30.27 in 8.0 mi NNW 8.1 mph - N/A   Overcast
6:51 AM 55.4 °F 50.0 °F 82% 29.85 in 8.0 mi NNW 6.9 mph - N/A   Overcast
7:22 AM 57.2 °F 48.2 °F 72% 30.29 in 6.0 mi NNW 6.9 mph - N/A   Overcast
7:44 AM 57.2 °F 48.2 °F 72% 30.30 in 6.0 mi NW 4.6 mph - N/A   Overcast
8:21 AM 57.2 °F 51.8 °F 82% 30.31 in 6.0 mi West 9.2 mph - N/A   Overcast
8:46 AM 57.2 °F 51.8 °F 82% 30.32 in 6.0 mi West 5.8 mph - N/A   Overcast
9:20 AM 57.2 °F 50.0 °F 77% 30.33 in 6.0 mi West 8.1 mph - N/A   Overcast
9:32 AM 57.2 °F 50.0 °F 77% 30.33 in 6.0 mi WSW 9.2 mph - N/A Rain Light Rain
9:46 AM 57.2 °F 50.0 °F 77% 29.92 in 6.0 mi West 8.1 mph - N/A   Overcast
10:21 AM 59.0 °F 50.0 °F 72% 30.33 in 6.0 mi West 5.8 mph - N/A   Overcast
10:45 AM 60.8 °F 48.2 °F 63% 30.33 in 6.0 mi SW 3.5 mph - N/A   Overcast
11:44 AM 62.6 °F 50.0 °F 63% 30.32 in 6.0 mi SW 4.6 mph - N/A   Overcast
12:41 PM 66.2 °F 50.0 °F 56% 30.32 in 5.0 mi Calm Calm - N/A   Overcast
12:45 PM 66.2 °F 51.8 °F 60% 29.84 in 5.0 mi SW 3.5 mph - N/A   Overcast
1:46 PM 68.0 °F 50.0 °F 52% 30.28 in 5.0 mi East 3.5 mph - N/A   Overcast
2:43 PM 69.8 °F 50.0 °F 49% 30.25 in 5.0 mi SE 3.5 mph - N/A   Overcast
3:04 PM 73.4 °F 48.2 °F 41% 30.25 in 5.0 mi NE 4.6 mph - N/A   Mostly Cloudy
3:23 PM 69.8 °F 48.2 °F 46% 30.24 in 5.0 mi SSW 4.6 mph - N/A   Overcast
3:40 PM 66.2 °F 53.6 °F 64% 30.25 in 4.0 mi South 16.1 mph - N/A Rain Light Rain
3:47 PM 62.6 °F 55.4 °F 77% 30.26 in 4.0 mi South 16.1 mph - N/A Rain Light Rain
3:54 PM 62.6 °F 55.4 °F 77% 30.26 in 3.0 mi SE 12.7 mph - N/A Rain , Thunderstorm Light Thunderstorms and Rain
4:20 PM 59.0 °F 55.4 °F 88% 30.26 in 3.0 mi SSE 11.5 mph - N/A Rain , Thunderstorm Light Thunderstorms and Rain
4:53 PM 60.8 °F 55.4 °F 82% 30.24 in 6.0 mi SW 8.1 mph - N/A   Overcast
5:48 PM 64.4 °F 55.4 °F 73% 30.24 in 6.0 mi WNW 10.4 mph - N/A   Overcast
5:52 PM 62.6 °F 55.4 °F 77% 30.24 in 6.0 mi NW 10.4 mph - N/A   Overcast
6:51 PM 60.8 °F 51.8 °F 72% 29.81 in 7.0 mi WNW 10.4 mph - N/A   Overcast
7:50 PM 60.8 °F 51.8 °F 72% 30.27 in 7.0 mi WNW 8.1 mph - N/A   Overcast
8:47 PM 60.8 °F 53.6 °F 77% 30.30 in 6.0 mi NNE 9.2 mph - N/A   Overcast
9:29 PM 57.2 °F 53.6 °F 88% 30.33 in 5.0 mi NE 5.8 mph - N/A Rain Light Rain
9:41 PM 57.2 °F 53.6 °F 88% 29.94 in 4.0 mi ENE 5.8 mph - N/A Rain Light Rain
10:43 PM 57.2 °F 55.4 °F 94% 30.34 in 4.0 mi NW 3.5 mph - N/A Rain Light Rain
11:46 PM 57.2 °F 55.4 °F 94% 30.35 in 4.0 mi Calm Calm - N/A   Overcast